Wind_Speed
31 31 31 31 31 31 31 31 32 33 32 32 32 33 33 33 33 32 31 31 32 32 32 32 32 32 31 32 31 31 32 32 32 32 32 32 32 33 34 34 35 35 35
33 33 33 33 33 33 33 33 33 33 32 32 32 33 33 34 34 34 34 33 32 32 32 33 34 34 33 33 34 33 33 34 33 33 33 33 34 35 35 36 37 37 37
34 34 34 35 35 35 35 35 34 34 33 33 33 33 34 34 34 35 35 34 33 33 34 34 35 35 35 35 36 35 35 35 35 35 35 35 35 36 36 38 38 38 38
36 35 35 36 36 36 36 36 36 35 35 34 34 34 34 35 35 35 35 35 35 35 35 35 36 36 36 37 37 38 37 38 38 39 38 38 38 38 38 38 39 39 39
37 37 37 37 37 37 37 37 37 37 37 37 36 35 35 35 35 35 36 36 36 35 36 36 37 37 38 38 38 39 40 40 41 41 41 41 41 40 40 40 40 41 41
38 38 38 38 38 38 38 38 38 37 37 37 37 36 36 36 36 35 35 36 36 36 36 36 37 38 38 39 39 40 41 41 42 43 43 43 43 42 42 42 43 43 43
40 40 39 39 39 39 39 39 38 38 37 37 36 36 36 36 36 36 36 36 36 36 37 37 38 39 39 40 40 41 42 42 43 43 43 44 44 44 44 44 44 44 44
41 40 40 40 40 40 40 39 39 38 38 38 37 37 37 37 37 37 37 37 37 37 38 39 39 39 40 41 41 42 43 43 44 44 44 44 45 45 45 45 46 45 44
42 42 42 42 41 41 41 40 40 39 39 38 38 38 37 36 37 36 36 37 37 38 39 39 40 41 41 42 42 43 43 44 44 45 45 45 46 46 47 47 47 47 46
42 42 42 43 43 42 41 41 40 40 40 40 39 39 38 38 37 37 37 37 37 38 39 40 41 42 42 42 42 43 44 45 44 44 45 46 46 47 47 48 48 48 48
42 42 42 43 43 43 42 41 42 41 41 41 41 40 40 39 39 39 39 39 39 40 40 41 42 42 43 43 44 44 45 45 45 45 46 46 47 47 47 48 49 49 48
42 42 43 44 44 44 43 42 42 42 42 42 42 42 41 41 40 40 41 41 41 41 42 42 43 43 44 44 44 45 45 45 46 46 47 47 47 48 48 48 48 48 47
42 42 43 44 44 44 43 43 42 42 42 42 42 42 42 42 42 41 42 42 42 42 43 43 44 44 45 45 46 46 46 46 46 47 47 47 47 48 48 49 48 47 47
42 42 42 43 44 44 44 44 43 42 42 43 43 43 43 43 42 42 42 43 43 43 43 43 44 45 45 46 46 46 46 46 46 47 47 47 47 48 48 48 48 47 47
41 42 42 43 44 44 44 44 43 42 42 43 43 44 43 43 44 43 43 43 43 43 43 43 44 44 45 46 46 46 46 46 47 47 48 48 48 48 48 47 48 48 48
40 40 41 42 43 43 43 42 42 42 42 42 43 44 44 44 44 43 42 42 42 43 43 43 43 43 44 46 47 47 47 47 47 48 49 48 48 47 48 48 48 49 50
39 39 38 39 40 40 41 41 41 41 42 42 42 43 44 44 43 43 42 42 43 43 44 43 44 44 45 46 46 48 48 47 47 48 48 48 48 48 47 47 47 48 49
37 38 37 37 37 38 38 39 41 41 41 42 42 43 43 42 42 43 42 42 42 43 43 44 44 45 45 45 45 45 45 46 46 47 47 47 47 47 47 47 47 48 48
36 36 36 36 36 37 37 37 39 40 40 40 41 41 42 42 41 41 41 42 42 41 42 43 43 44 44 44 44 44 44 45 45 45 45 45 45 45 46 46 47 47 48
36 35 36 35 36 36 36 36 37 38 38 39 39 40 40 40 40 40 40 40 40 40 41 42 42 42 43 43 43 43 43 43 43 43 44 44 43 43 44 45 46 47 47
36 36 35 35 35 35 35 35 36 36 37 37 37 38 38 38 39 39 39 40 40 40 41 41 41 41 41 41 42 42 43 42 42 42 42 42 42 43 44 44 45 45 45
35 35 35 34 34 34 35 34 34 34 35 36 36 36 37 37 38 38 39 39 40 40 40 41 41 41 41 41 41 41 41 40 40 40 41 41 41 41 42 43 43 43 42
33 33 34 33 33 33 33 33 33 33 34 35 35 35 36 36 37 38 38 38 39 40 40 41 41 40 40 40 40 39 39 39 38 39 39 39 39 40 40 41 41 41 41
32 32 32 32 32 32 32 33 33 33 34 34 33 34 35 35 35 36 37 37 38 39 40 40 40 40 39 38 38 38 37 37 37 38 39 38 38 38 39 39 39 40 40
31 32 32 32 32 32 32 33 32 32 32 33 33 33 34 34 34 35 36 37 37 37 38 38 39 38 38 39 39 38 37 37 37 38 38 38 37 37 38 38 38 38 37
31 31 31 31 31 31 32 32 31 31 32 32 33 32 32 33 34 34 35 35 36 36 36 36 36 36 37 37 38 37 37 37 36 36 36 36 37 37 36 36 35 35 35
Wind_Direction
267 267 268 268 269 270 272 272 270 270 270 269 266 265 264 263 263 265 267 268 267 267 267 268 267 268 270 269 269 271 272 272 272 273 274 277 279 279 279 279 279 280 280
267 267 268 268 269 269 270 271 271 271 270 270 269 268 267 265 266 266 267 268 267 266 267 267 268 268 269 270 270 272 273 273 273 274 275 277 279 279 279 280 280 281 281
268 268 268 269 269 268 269 270 270 270 269 269 270 270 269 269 267 267 267 267 267 267 268 268 268 270 270 271 273 273 274 274 275 275 276 277 278 280 281 282 281 281 282
268 268 269 268 268 268 268 269 270 270 270 270 271 271 270 269 270 269 268 267 267 267 268 269 269 270 271 272 274 274 274 274 274 275 276 277 278 280 281 281 281 281 282
267 267 268 268 268 268 269 269 271 271 270 270 271 271 272 272 271 271 268 268 267 266 267 268 270 271 272 272 274 275 275 275 276 276 277 277 277 279 280 281 281 281 281
267 267 267 267 267 267 268 269 270 271 271 272 272 271 272 272 274 273 270 269 268 267 268 268 270 271 272 272 274 276 277 277 277 277 277 277 277 277 278 280 281 281 282
266 266 266 266 266 267 268 269 270 270 270 271 272 271 270 272 272 273 272 271 270 269 269 270 271 273 273 273 275 277 277 278 278 277 277 277 276 276 276 278 280 281 282
266 266 265 265 265 266 267 268 270 270 270 270 271 271 270 271 272 273 273 272 271 271 272 272 272 274 275 275 277 278 279 279 278 278 278 277 276 275 276 277 279 280 281
267 266 265 264 264 265 266 268 269 269 269 269 270 272 272 271 271 273 274 273 273 272 273 273 274 275 276 276 277 278 279 280 280 279 279 278 277 277 276 277 278 279 280
266 265 265 264 263 264 265 266 268 269 268 269 270 271 273 273 271 272 273 274 274 274 275 276 276 277 277 277 278 279 280 281 280 280 280 280 280 279 278 278 279 279 281
266 264 263 263 263 263 264 265 267 268 268 269 270 271 272 274 274 273 272 273 274 275 276 276 276 277 278 278 278 279 279 280 280 280 281 281 281 280 279 279 280 280 281
265 264 262 261 262 263 263 263 266 267 268 269 270 271 273 274 275 274 273 273 274 275 276 277 276 277 278 279 279 279 279 280 280 281 281 282 282 281 280 280 280 280 281
264 263 262 261 261 261 262 263 265 267 268 269 270 272 272 273 275 275 275 275 275 276 277 277 277 276 277 278 279 280 280 280 281 280 281 282 283 283 281 280 280 280 280
264 264 264 263 262 261 261 262 264 267 268 269 270 271 272 274 274 275 276 276 276 276 277 278 278 277 278 278 279 279 280 282 282 281 282 282 283 283 282 281 280 280 280
264 264 264 264 263 261 260 261 263 266 268 269 270 270 271 273 273 275 275 276 277 276 276 278 279 278 278 278 278 279 280 281 282 282 282 283 284 283 282 281 280 280 281
264 265 266 266 264 262 261 261 262 265 267 268 269 270 271 272 273 273 274 275 277 277 277 278 279 279 279 279 279 280 281 281 282 282 282 283 283 283 283 282 281 281 281
266 266 266 266 265 264 262 262 263 265 266 267 268 270 271 272 272 273 273 275 276 277 278 279 280 281 280 280 281 281 282 282 283 283 282 283 283 283 283 283 282 282 281
267 267 266 266 266 266 264 263 263 265 267 268 269 270 271 271 272 273 273 275 276 277 278 279 280 281 282 282 282 282 283 283 284 283 283 283 283 283 283 283 284 283 284
267 267 268 268 268 267 265 265 265 265 267 268 268 269 270 270 272 273 274 275 277 278 279 280 281 282 283 283 283 283 284 284 285 284 284 284 284 284 283 284 284 284 284
266 267 269 269 269 268 266 266 266 266 267 268 269 269 270 271 273 274 274 275 277 279 280 281 282 283 284 284 285 285 285 285 285 285 285 285 285 284 284 285 285 284 284
266 266 267 268 268 268 267 266 266 267 267 269 269 269 270 271 273 274 275 276 278 279 280 282 283 284 285 286 287 287 286 286 285 286 286 286 286 285 285 286 286 285 285
266 265 265 266 267 268 266 265 266 267 268 269 270 270 270 271 273 274 276 278 279 280 281 282 284 285 286 288 288 289 288 287 286 286 287 287 287 287 287 287 288 288 287
267 265 265 266 267 268 266 265 265 267 269 269 269 270 272 272 273 275 276 278 280 280 281 283 284 286 287 287 288 288 288 288 289 289 289 289 288 289 289 289 289 289 289
267 265 266 266 267 268 267 266 265 266 267 268 269 271 273 273 274 277 278 279 280 281 282 283 283 285 285 286 287 289 289 289 291 291 291 291 290 290 291 291 290 290 290
268 266 266 266 267 268 267 266 267 267 266 267 269 272 274 275 276 278 279 279 281 282 283 284 284 285 285 285 286 287 288 289 290 291 291 291 291 291 291 292 291 290 291
267 265 266 266 267 269 269 268 267 267 267 267 270 272 276 276 277 278 280 280 281 283 283 285 286 286 287 287 287 288 290 290 291 292 291 292 292 292 292 291 290 290 290
Height
5788 5788 5788 5788 5789 5788 5788 5788 5788 5788 5788 5788 5789 5789 5790 5791 5792 5792 5793 5792 5792 5793 5793 5793 5793 5793 5794 5794 5794 5794 5794 5794 5794 5794 5794 5793 5792 5792 5791 5790 5789 5788 5787
5780 5781 5781 5781 5781 5781 5781 5781 5781 5781 5781 5781 5781 5781 5782 5783 5784 5785 5785 5785 5784 5784 5785 5785 5786 5786 5786 5786 5786 5786 5786 5786 5786 5786 5786 5785 5784 5783 5782 5781 5780 5779 5778
5773 5773 5773 5774 5774 5774 5774 5774 5774 5773 5773 5773 5773 5773 5774 5775 5775 5776 5776 5777 5777 5777 5777 5777 5778 5778 5778 5778 5778 5778 5778 5778 5778 5777 5777 5776 5776 5774 5773 5772 5771 5770 5768
5765 5765 5765 5766 5766 5766 5766 5766 5766 5766 5766 5765 5765 5765 5765 5766 5767 5767 5768 5768 5769 5769 5769 5770 5770 5770 5770 5770 5770 5770 5770 5769 5769 5768 5768 5767 5766 5765 5764 5763 5761 5760 5759
5756 5756 5757 5757 5757 5757 5758 5758 5758 5757 5757 5757 5757 5757 5757 5757 5758 5758 5759 5759 5760 5760 5761 5761 5761 5761 5761 5761 5761 5761 5760 5760 5760 5759 5758 5758 5757 5755 5754 5753 5752 5751 5749
5747 5747 5748 5748 5749 5749 5749 5749 5749 5749 5748 5748 5748 5748 5748 5748 5749 5750 5750 5751 5751 5752 5752 5752 5753 5753 5752 5752 5752 5751 5751 5750 5750 5749 5748 5747 5746 5745 5744 5743 5742 5740 5739
5737 5738 5739 5739 5740 5740 5740 5740 5740 5740 5740 5739 5740 5740 5740 5740 5741 5741 5742 5742 5742 5743 5743 5743 5743 5743 5743 5743 5742 5742 5741 5740 5739 5738 5737 5737 5736 5735 5733 5732 5731 5730 5728
5727 5728 5729 5729 5730 5731 5731 5731 5731 5731 5731 5731 5731 5731 5732 5733 5732 5733 5733 5733 5734 5734 5734 5734 5734 5734 5734 5733 5733 5732 5731 5730 5729 5727 5726 5725 5725 5723 5722 5721 5720 5718 5717
5717 5717 5718 5719 5720 5721 5721 5721 5721 5722 5722 5722 5722 5722 5723 5724 5724 5724 5724 5724 5724 5725 5725 5725 5724 5724 5723 5723 5722 5721 5720 5719 5718 5716 5715 5714 5713 5712 5711 5710 5708 5706 5705
5705 5706 5707 5708 5709 5710 5711 5711 5711 5712 5712 5712 5713 5713 5714 5714 5715 5716 5716 5715 5715 5715 5715 5715 5714 5714 5713 5713 5712 5711 5709 5708 5706 5705 5704 5703 5701 5700 5699 5698 5696 5695 5694
5694 5695 5696 5697 5698 5699 5700 5701 5701 5702 5702 5703 5703 5704 5704 5704 5705 5706 5707 5707 5706 5706 5705 5704 5704 5703 5703 5702 5701 5699 5698 5696 5695 5694 5692 5691 5689 5688 5687 5685 5684 5683 5681
5683 5683 5684 5686 5687 5688 5689 5690 5691 5691 5692 5693 5693 5694 5694 5695 5695 5696 5696 5697 5697 5696 5695 5694 5693 5692 5691 5690 5689 5688 5686 5685 5683 5682 5681 5679 5677 5675 5674 5673 5671 5670 5668
5672 5672 5673 5674 5675 5677 5678 5679 5680 5681 5682 5682 5683 5684 5684 5684 5685 5685 5686 5686 5686 5686 5685 5683 5682 5681 5680 5679 5677 5676 5675 5673 5672 5670 5668 5667 5665 5663 5661 5660 5658 5657 5655
5660 5661 5662 5663 5664 5665 5667 5668 5670 5670 5671 5672 5672 5673 5673 5674 5674 5674 5675 5674 5674 5674 5674 5673 5671 5669 5668 5667 5665 5664 5663 5661 5660 5658 5656 5654 5652 5650 5648 5647 5645 5644 5642
5649 5650 5650 5651 5652 5654 5655 5657 5659 5660 5660 5661 5661 5662 5663 5663 5663 5663 5663 5663 5663 5663 5663 5662 5660 5658 5657 5655 5654 5653 5651 5649 5648 5646 5644 5642 5640 5638 5636 5634 5633 5631 5629
5638 5639 5639 5640 5641 5642 5644 5645 5647 5648 5649 5650 5650 5651 5651 5652 5652 5652 5652 5651 5651 5651 5651 5650 5648 5647 5645 5644 5642 5641 5639 5637 5636 5633 5631 5629 5627 5625 5623 5621 5620 5618 5616
5627 5628 5629 5629 5630 5631 5632 5634 5636 5637 5638 5639 5639 5640 5640 5640 5640 5641 5640 5640 5639 5639 5639 5638 5636 5635 5633 5632 5630 5628 5627 5625 5623 5621 5619 5617 5614 5612 5610 5608 5606 5605 5603
5617 5618 5618 5619 5620 5621 5622 5623 5625 5626 5627 5628 5628 5629 5629 5629 5629 5629 5629 5629 5628 5627 5627 5626 5625 5623 5621 5619 5618 5616 5614 5612 5610 5608 5606 5604 5601 5599 5598 5596 5594 5592 5590
5607 5607 5608 5609 5609 5610 5611 5612 5614 5615 5616 5616 5617 5617 5618 5618 5618 5618 5618 5617 5617 5616 5615 5614 5613 5611 5609 5607 5606 5604 5602 5600 5597 5595 5593 5591 5589 5587 5585 5583 5581 5579 5577
5597 5598 5598 5599 5599 5600 5601 5602 5603 5604 5605 5606 5606 5606 5607 5607 5607 5607 5606 5606 5606 5605 5604 5603 5601 5600 5598 5596 5594 5592 5591 5588 5586 5583 5581 5579 5577 5574 5573 5570 5569 5566 5564
5587 5588 5589 5589 5590 5590 5591 5592 5593 5594 5594 5595 5595 5596 5596 5596 5596 5596 5596 5595 5595 5594 5593 5592 5590 5589 5587 5585 5583 5581 5579 5577 5575 5572 5570 5567 5565 5563 5561 5558 5556 5553 5551
5577 5578 5579 5579 5580 5581 5581 5582 5583 5584 5584 5585 5586 5586 5586 5586 5586 5586 5585 5585 5584 5583 5582 5581 5580 5578 5576 5574 5572 5570 5568 5566 5565 5563 5559 5557 5554 5552 5549 5547 5544 5541 5539
5567 5568 5569 5570 5571 5571 5572 5572 5573 5574 5575 5575 5576 5576 5577 5576 5576 5576 5575 5574 5574 5572 5571 5571 5569 5567 5566 5564 5562 5560 5557 5555 5553 5551 5548 5547 5544 5541 5538 5535 5532 5530 5527
5558 5559 5560 5561 5562 5562 5562 5563 5564 5564 5565 5566 5566 5567 5567 5567 5567 5566 5565 5564 5563 5562 5561 5560 5559 5557 5555 5553 5551 5549 5547 5546 5543 5540 5537 5536 5533 5531 5528 5524 5521 5519 5516
5550 5550 5551 5552 5553 5553 5554 5554 5555 5556 5556 5557 5558 5558 5558 5558 5558 5557 5556 5555 5554 5552 5551 5549 5548 5546 5544 5542 5540 5538 5537 5535 5533 5531 5527 5525 5523 5520 5518 5515 5511 5508 5505
5542 5542 5543 5544 5544 5545 5545 5546 5546 5547 5548 5549 5549 5550 5549 5549 5548 5547 5546 5545 5544 5543 5541 5540 5538 5536 5533 5531 5530 5528 5526 5524 5522 5521 5518 5515 5512 5510 5509 5506 5502 5498 5496